Location: Buckeye Ditch
(40.9104°N, 122.9517°W)
Time: 12:15:34
(UTC+00:00)

Tiros 1 despin weight - Pass Details

Date: 27 May 2025
Orbit: 563 x 601 km, 48.2° (Epoch: 22 June)

Event Time Altitude Azimuth Distance (km) Brightness Sun altitude
Rises 15:25:16 0° 281° (WNW) 2,840 ? 28.0°
Reaches altitude 10° 15:29:13 10° 247° (WSW) 1,936 ? 28.7°
Maximum altitude 15:30:30 11° 230° (SW) 1,861 ? 28.9°
Drops below altitude 10° 15:31:47 10° 213° (SSW) 1,933 ? 29.2°
Sets 15:35:44 0° 178° (S) 2,828 ? 29.9°
